ON4BN Weather Reports


Display with metric or nautical units.
time (UTC)temp
F
wind
direction
speed
MPH
gust
MPH
rain 1hr
in
rain 24hr
in
rain mn
in
humidity
%
barometer
mb
20260506194532 49 352 1.0 2.0 4.21 9.90 9.03 89
20260506193528 49 356 1.0 3.0 4.23 9.90 8.96 88
20260506192532 49 348 2.0 5.0 4.21 9.90 8.89 88
20260506191526 49 353 2.0 4.0 4.20 9.89 8.82 88
20260506190534 49 342 2.0 5.0 4.24 9.89 8.75 88
20260506185524 49 359 2.0 5.0 4.24 9.89 8.68 88
20260506184532 49 25 2.0 4.0 4.18 9.89 8.61 88
20260506183529 49 37 2.0 5.0 4.16 9.88 8.54 88
20260506182529 49 1 2.0 4.0 4.19 9.88 8.47 89
20260506181525 49 350 2.0 4.0 4.19 9.88 8.40 88
20260506180532 50 337 2.0 4.0 4.15 9.88 8.33 87
20260506175527 50 356 3.0 7.0 4.11 9.87 8.25 85
20260506174532 50 11 3.0 8.0 4.16 9.87 8.19 84
20260506173542 51 5 3.0 7.0 4.19 9.87 8.12 82
20260506172525 51 8 3.0 5.0 4.15 9.87 8.05 82
20260506171526 51 359 4.0 9.0 4.16 9.87 7.98 81
20260506170614 51 359 4.0 7.0 4.18 9.86 7.91 80
20260506165529 52 6 3.0 7.0 4.19 9.86 7.84 79
20260506164532 52 354 2.0 5.0 4.16 9.86 7.77 78
20260506163524 52 348 4.0 10.0 4.12 9.86 7.70 77
20260506162520 53 1 4.0 7.0 4.14 9.85 7.63 76
20260506161526 53 355 3.0 7.0 4.12 9.85 7.56 75
20260506160532 53 350 4.0 8.0 4.09 9.85 7.49 75
20260506155526 53 341 4.0 7.0 4.11 9.85 7.42 74
20260506154535 53 350 4.0 8.0 4.12 9.84 7.36 74
20260506153546 53 348 4.0 9.0 4.15 9.84 7.29 75
20260506152533 53 349 4.0 9.0 4.14 9.84 7.22 75
20260506151524 53 347 4.0 7.0 4.14 9.84 7.15 76
20260506150552 53 6 6.0 13.0 4.20 9.83 7.08 77
20260506145546 53 12 3.0 5.0 4.19 9.83 7.01 77
20260506144537 53 352 3.0 7.0 4.19 9.83 6.94 77
20260506143527 53 358 4.0 8.0 4.19 9.83 6.87 78
20260506142532 53 339 5.0 11.0 4.23 9.83 6.80 79
20260506141529 53 355 4.0 9.0 4.23 9.82 6.73 78
20260506140532 53 6 5.0 11.0 4.19 9.82 6.66 78
20260506135524 53 11 6.0 11.0 4.20 9.82 6.59 79
20260506134527 54 5 6.0 12.0 4.23 9.82 6.52 79
20260506133524 54 351 5.0 10.0 4.23 9.81 6.45 79
20260506132533 54 345 3.0 6.0 4.19 9.81 6.38 80
20260506131525 53 347 4.0 7.0 4.21 9.81 6.31 81
20260506130554 54 0 4.0 7.0 4.25 9.81 6.24 81
20260506125526 53 32 3.0 7.0 4.26 9.81 6.17 82
20260506124545 53 6 5.0 9.0 4.23 9.80 6.10 84
20260506123524 52 358 5.0 10.0 4.23 9.80 6.03 85
20260506122532 53 9 7.0 12.0 4.25 9.80 5.96 85
20260506121525 54 357 4.0 10.0 4.23 9.80 5.89 87
20260506120534 54 5 5.0 8.0 4.19 9.79 5.82 87
20260506115547 53 19 5.0 10.0 4.16 9.79 5.75 87
20260506114521 53 357 4.0 8.0 4.20 9.79 5.68 88
20260506113524 52 40 4.0 7.0 4.18 9.78 5.61 89
20260506112534 52 37 3.0 8.0 4.14 9.78 5.54 89
20260506111546 52 6 5.0 10.0 4.15 9.78 5.47 90
20260506110535 52 3 4.0 8.0 4.15 9.78 5.40 91
20260506105526 51 343 4.0 7.0 4.16 9.78 5.33 91
20260506104532 51 355 4.0 8.0 4.09 9.77 5.26 92
20260506103525 51 352 5.0 10.0 4.09 9.77 5.19 92
20260506102554 51 341 4.0 8.0 4.14 9.77 5.12 94
20260506101528 51 346 4.0 10.0 4.11 9.76 5.05 94
20260506100554 50 351 4.0 10.0 4.10 9.77 4.98 94
20260506095526 50 327 3.0 9.0 4.10 9.76 4.91 95
20260506094537 50 350 3.0 8.0 4.16 9.77 4.85 95
20260506093524 50 359 4.0 10.0 4.18 9.76 4.78 96
20260506092532 50 353 4.0 8.0 4.11 9.76 4.71 96
20260506091524 50 347 4.0 7.0 4.14 9.76 4.64 96
20260506090526 50 350 3.0 8.0 4.19 9.76 4.57 96
20260506085549 50 337 4.0 7.0 4.17 9.75 4.50 97
20260506084534 49 358 3.0 9.0 4.15 9.75 4.43 97
20260506083524 49 344 4.0 12.0 4.17 9.75 4.36 97
20260506082534 49 346 4.0 8.0 4.23 9.75 4.30 97
20260506081546 49 348 4.0 7.0 4.22 9.74 4.22 97
20260506080522 48 355 5.0 11.0 4.17 9.74 4.15 97
20260506073520 48 351 5.0 9.0 4.18 9.73 3.94 98
20260506072534 48 360 4.0 7.0 4.13 9.73 3.87 98
20260506071524 48 357 3.0 8.0 4.13 9.73 3.80 98
20260506070535 48 326 3.0 7.0 4.16 9.73 3.74 98
20260506061526 47 345 3.0 6.0 4.14 9.72 3.39 98
20260506060532 47 345 3.0 5.0 4.10 9.72 3.32 98
20260506050532 47 343 4.0 8.0 4.08 9.72 2.91 98
20260506044557 47 348 3.0 6.0 4.04 9.72 2.77 98
20260506043523 47 337 4.0 7.0 4.05 9.72 2.70 98
20260506042525 47 357 3.0 7.0 4.07 9.71 2.64 98
20260506041526 47 358 3.0 6.0 4.07 9.72 2.57 98
20260506040532 47 345 4.0 10.0 4.05 9.71 2.50 98
20260506035524 47 338 3.0 6.0 4.05 9.71 2.43 98
20260506034534 47 344 3.0 7.0 4.10 9.72 2.37 98
20260506033524 47 347 3.0 8.0 4.09 9.71 2.30 98
20260506032521 47 349 3.0 6.0 4.04 9.71 2.23 98
20260506031544 47 350 3.0 5.0 4.08 9.71 2.16 98
20260506030554 47 351 4.0 7.0 4.09 9.71 2.10 98
20260506025520 47 349 3.0 7.0 4.08 9.71 2.03 98
20260506024532 47 348 3.0 7.0 4.05 9.71 1.96 98
20260506023546 47 2 4.0 7.0 4.08 9.70 1.89 98
20260506022534 47 345 3.0 9.0 4.11 9.70 1.82 98
20260506021548 47 357 3.0 6.0 4.09 9.70 1.75 98
20260506020532 47 342 3.0 6.0 4.09 9.70 1.69 98
20260506015710 47 331 4.0 7.0 4.10 9.70 1.62 98
20260506014550 47 341 2.0 6.0 4.12 9.70 1.55 98
20260506013524 47 351 4.0 7.0 4.12 9.70 1.48 98
20260506012532 47 8 4.0 10.0 4.08 9.70 1.41 98
20260506011524 48 347 3.0 7.0 4.08 9.70 1.34 98
20260506010532 48 330 2.0 6.0 4.10 9.69 1.28 98
20260506005524 48 343 2.0 5.0 4.11 9.69 1.21 98
20260506004528 48 347 3.0 6.0 4.09 9.69 1.14 98
20260506003524 48 359 2.0 4.0 4.06 9.69 1.07 98
20260506002554 48 347 2.0 4.0 4.10 9.69 1.00 98
20260506001528 48 348 3.0 7.0 4.08 9.69 9.40 98
20260506000532 48 344 3.0 6.0 4.03 9.69 8.70 98
20260505235524 48 345 3.0 5.0 4.00 9.69 8.00 98
20260505234524 48 351 4.0 7.0 4.04 9.69 7.34 98
20260505233524 48 358 3.0 6.0 4.02 9.69 6.67 98
20260505232532 49 356 4.0 8.0 3.95 9.69 5.98 98
20260505231544 49 343 3.0 7.0 3.98 9.69 5.31 98
20260505230533 49 4 4.0 7.0 4.00 9.69 4.67 97
20260505225524 49 350 3.0 7.0 3.99 9.69 3.99 97
20260505224521 49 356 4.0 7.0 3.95 9.69 3.30 97
20260505223523 49 347 3.0 5.0 3.99 9.69 2.64 97
20260505222532 49 348 3.0 6.0 4.02 9.69 2.02 97
20260505221524 49 349 3.0 7.0 4.02 9.69 1.33 97
20260505220532 49 347 3.0 6.0 4.00 9.70 6.72 97
20260505215549 49 346 3.0 6.0 3.99 9.70 9.70 97
20260505214534 50 351 4.0 9.0 4.03 9.69 9.63 97
20260505213524 50 359 3.0 9.0 4.02 9.69 9.56 97
20260505212532 50 14 3.0 7.0 3.99 9.69 9.49 97
20260505211524 50 352 4.0 8.0 4.00 9.69 9.43 96
20260505210532 50 357 3.0 7.0 4.03 9.69 9.36 96
20260505205525 50 340 4.0 10.0 4.06 9.69 9.30 96
20260505204552 50 357 4.0 11.0 4.01 9.69 9.23 96
20260505203606 50 355 3.0 7.0 4.01 9.69 9.16 95
20260505202532 50 354 5.0 12.0 4.07 9.69 9.10 95
20260505201524 50 340 4.0 7.0 4.07 9.68 9.03 94
20260505200527 51 348 5.0 10.0 4.04 9.68 8.96 94
20260505195524 51 3 4.0 9.0 4.06 9.68 8.89 93